Wetbulb
25.16 25.40 25.04 25.85 26.50 26.61 26.48 25.99 23.58 20.63 22.78 27.14 27.35 30.77 31.63 31.50 32.02 32.76 32.71 33.63 35.51 37.01 37.74 38.11 38.34 38.73 39.48 40.38 41.14 42.02 42.95 43.49 44.10 44.86 45.89 46.82 48.22 49.96
25.09 24.62 24.79 25.46 25.76 26.27 26.37 26.32 25.76 23.63 20.62 26.57 27.93 29.23 30.36 30.54 31.84 32.24 32.40 33.08 34.30 35.55 36.67 37.04 37.30 37.81 38.52 39.34 40.08 40.77 41.48 42.20 43.21 44.41 45.39 46.15 47.18 48.18
24.04 23.91 24.22 25.12 25.16 25.63 26.01 26.03 25.41 25.15 21.66 25.13 28.09 29.62 29.06 29.43 30.52 31.59 31.68 31.52 31.90 33.49 35.04 36.31 37.25 37.89 38.39 38.90 39.09 39.68 40.38 41.21 42.12 43.11 44.28 45.22 45.92 46.76
23.32 23.52 23.45 24.71 24.70 25.25 25.37 25.09 25.29 26.13 24.18 22.75 26.63 27.68 28.02 29.49 29.65 29.44 30.22 31.36 31.71 32.94 34.64 36.01 37.10 38.02 38.60 38.54 38.34 38.53 38.85 39.62 40.40 41.27 42.17 42.97 44.64 45.97
23.62 23.37 23.60 23.92 23.66 24.75 25.06 25.08 25.74 25.98 25.71 23.98 24.47 27.82 28.64 29.82 29.48 30.36 30.42 31.10 31.49 32.65 34.33 35.37 36.27 37.09 37.60 37.96 38.22 38.31 38.39 38.59 38.77 38.98 39.93 41.04 42.48 43.78
24.06 24.24 24.36 24.43 24.43 25.16 25.53 25.46 25.96 25.38 25.80 24.59 24.71 26.23 28.07 29.79 29.79 28.14 28.37 31.31 31.05 32.34 33.00 33.93 35.18 35.78 36.74 37.56 37.27 36.47 36.48 37.02 38.21 39.08 39.61 40.31 40.96 42.07
24.35 25.06 25.79 26.68 27.96 28.13 26.30 26.26 26.24 25.90 25.98 25.52 24.96 26.05 26.91 27.82 27.77 29.74 28.50 30.04 31.27 32.15 31.28 31.75 32.45 32.75 33.18 34.16 34.59 35.27 36.01 36.57 37.09 37.46 38.08 38.62 39.27 40.40
24.81 25.96 26.65 28.12 29.19 31.32 32.18 33.19 32.41 26.34 26.44 26.55 26.60 26.65 27.24 28.64 29.81 29.32 29.02 28.20 26.55 33.37 31.17 30.65 32.92 31.56 32.56 33.05 34.18 35.14 36.05 36.73 37.02 37.28 37.46 37.94 38.38 38.85
26.77 26.71 26.98 28.17 29.57 29.04 30.55 31.57 31.90 32.65 33.06 31.14 28.93 28.97 28.68 29.77 29.69 28.25 28.44 28.75 28.40 32.23 32.11 29.55 32.51 31.92 33.38 33.55 34.81 35.43 36.10 36.61 36.93 37.28 37.29 37.53 37.68 38.12
27.14 27.15 27.05 27.21 28.21 28.26 27.79 27.51 28.06 28.99 29.87 30.22 30.46 30.68 30.93 31.06 30.87 30.43 30.09 30.36 31.68 32.23 32.67 28.16 32.02 31.34 33.16 34.16 34.97 35.37 35.76 36.19 36.66 37.00 37.07 37.19 37.40 37.70
26.37 26.91 26.91 26.80 28.83 30.20 28.38 27.48 28.03 29.02 32.09 33.28 33.92 33.73 33.67 33.77 33.50 32.54 29.97 28.85 27.18 28.99 32.42 30.89 30.52 30.73 32.40 32.60 34.09 34.87 35.26 35.75 36.24 36.76 37.11 37.28 37.21 37.90
26.18 26.89 29.23 29.15 30.40 31.17 29.31 28.83 27.53 27.86 28.92 29.06 29.47 30.47 31.54 31.01 31.96 31.67 30.09 26.67 26.68 25.46 29.56 28.13 29.32 30.42 27.44 32.83 33.82 34.28 34.21 34.98 35.76 36.19 36.73 37.11 37.03 36.14
25.42 26.00 27.31 29.70 30.29 30.78 30.97 28.84 28.48 29.85 29.93 29.99 27.82 27.27 27.53 28.06 28.57 29.17 29.34 28.34 26.12 25.86 30.90 30.45 29.30 30.86 29.93 28.79 31.40 32.90 32.86 33.77 34.54 35.17 35.63 35.65 35.72 35.38
26.49 27.07 27.68 29.63 30.12 30.57 30.80 29.25 29.24 28.67 26.97 25.28 24.76 24.45 24.74 25.46 26.68 28.02 28.66 29.62 30.23 28.35 29.23 29.52 27.08 28.04 27.49 27.51 27.36 31.49 32.91 33.58 33.55 32.75 33.40 34.11 34.81 36.05
27.33 28.44 29.75 29.75 29.24 27.23 26.46 27.22 27.59 24.83 23.08 21.95 21.60 22.18 23.84 25.57 26.62 27.06 27.40 27.74 28.07 28.41 29.34 29.96 29.32 29.10 28.75 27.15 27.17 28.79 29.25 31.44 32.88 31.75 31.97 32.18 32.85 34.18
27.89 27.70 28.07 27.68 26.66 25.46 24.16 22.89 22.36 22.29 21.73 21.11 21.78 23.79 24.76 24.78 24.48 25.53 24.75 25.65 25.17 25.70 28.75 29.78 29.73 29.70 27.55 28.66 29.10 28.17 29.89 27.02 31.47 31.87 31.61 32.35 33.25 34.32
28.01 26.74 22.93 21.19 20.05 19.75 19.90 20.11 21.02 21.30 20.46 21.10 21.12 21.79 22.53 23.22 23.65 25.51 25.10 24.88 23.28 23.07 24.43 27.68 29.08 29.68 29.50 28.82 27.08 29.07 29.48 29.12 30.15 30.15 30.58 30.20 32.13 33.60
25.94 20.81 19.09 18.01 17.00 17.23 17.52 18.22 19.37 19.94 20.45 20.88 21.30 21.76 21.78 22.10 22.84 23.89 24.58 24.20 23.10 22.82 23.22 25.51 26.52 26.07 26.44 28.12 30.15 27.65 29.06 29.01 30.95 31.60 31.84 29.60 29.97 34.40
20.73 19.65 17.83 17.14 16.74 16.64 16.88 17.09 16.98 18.89 20.28 19.92 19.74 19.84 20.67 21.46 22.20 22.23 22.73 22.29 22.50 23.27 23.88 25.31 24.99 23.42 21.31 20.23 26.45 30.16 26.93 29.08 29.90 30.12 32.13 31.31 30.60 31.88
19.15 17.72 17.16 17.36 16.68 15.94 16.04 16.01 16.92 17.81 18.24 18.69 18.93 19.18 19.42 20.33 20.51 20.76 21.61 21.12 21.63 22.32 22.59 24.35 24.42 24.34 23.17 22.11 22.90 26.11 29.32 26.89 26.68 26.36 27.34 30.04 31.83 33.06
17.92 17.21 17.23 17.12 16.92 16.60 16.32 16.23 16.22 16.38 17.48 17.63 17.89 19.11 19.57 18.91 19.00 20.34 20.92 22.61 23.37 23.41 22.05 22.47 24.84 28.33 27.96 28.12 23.47 23.33 26.14 28.68 28.14 26.75 27.34 26.68 26.07 27.23
17.38 17.33 17.85 18.40 18.08 17.49 17.39 17.00 16.26 16.22 16.29 16.62 16.96 17.65 18.15 18.74 18.59 19.26 20.14 20.10 20.66 21.67 22.06 24.10 25.34 25.55 24.81 23.31 21.79 22.27 23.56 25.90 27.78 28.17 28.59 27.94 25.32 22.24
16.91 17.41 17.82 18.30 18.90 19.10 18.84 17.97 16.97 16.66 16.42 15.94 15.97 16.58 17.17 17.37 19.05 19.91 20.21 20.43 20.55 20.83 21.70 21.40 23.59 24.72 23.84 23.39 23.10 22.58 22.18 22.54 23.77 23.49 24.65 27.65 28.02 28.44
MSLP
1029.81 1029.84 1029.88 1029.83 1029.87 1029.89 1029.87 1029.76 1029.67 1029.20 1028.53 1027.83 1027.76 1027.68 1027.73 1027.72 1027.56 1027.40 1027.14 1026.93 1026.44 1025.91 1025.54 1025.14 1024.84 1024.70 1024.61 1024.55 1024.25 1023.85 1023.52 1023.27 1022.93 1022.84 1022.51 1022.26 1022.01 1021.85
1029.47 1029.57 1029.61 1029.70 1029.68 1029.69 1029.67 1029.62 1029.62 1029.37 1028.81 1028.06 1027.58 1027.53 1027.56 1027.36 1027.10 1027.02 1026.79 1026.57 1026.17 1025.73 1025.37 1025.03 1024.74 1024.42 1024.12 1023.87 1023.55 1023.41 1023.22 1022.82 1022.60 1022.26 1021.95 1021.71 1021.58 1021.37
1029.15 1029.24 1029.36 1029.45 1029.27 1029.22 1029.28 1029.29 1029.12 1029.00 1028.62 1027.90 1027.41 1027.20 1027.18 1026.91 1026.48 1026.46 1026.28 1026.05 1025.72 1025.41 1025.15 1024.67 1024.28 1023.90 1023.61 1023.46 1023.16 1022.89 1022.63 1022.45 1022.30 1021.76 1021.25 1020.91 1020.87 1020.72
1029.11 1029.14 1028.98 1029.04 1028.83 1028.79 1028.67 1028.54 1028.40 1028.31 1028.28 1027.69 1026.83 1026.50 1026.51 1026.28 1026.07 1025.82 1025.48 1025.32 1024.99 1024.50 1024.22 1023.83 1023.53 1023.29 1022.97 1022.90 1022.70 1022.48 1022.31 1022.03 1021.59 1021.15 1020.82 1020.49 1020.15 1019.79
1028.73 1028.65 1028.46 1028.46 1028.23 1028.14 1028.06 1027.92 1027.72 1027.62 1027.55 1027.37 1026.68 1026.05 1025.64 1025.40 1025.26 1024.96 1024.68 1024.32 1024.12 1023.77 1023.51 1023.24 1022.80 1022.50 1022.29 1022.15 1022.00 1021.85 1021.70 1021.46 1021.07 1020.70 1020.23 1020.00 1019.74 1019.41
1028.10 1028.05 1027.91 1027.81 1027.55 1027.33 1027.18 1027.02 1026.87 1026.78 1026.55 1026.49 1026.21 1025.66 1025.12 1024.57 1024.54 1024.08 1023.43 1023.25 1022.99 1022.84 1022.61 1022.36 1021.98 1021.75 1021.48 1021.32 1021.14 1020.99 1020.83 1020.63 1020.27 1019.91 1019.58 1019.29 1018.96 1018.61
1027.41 1027.24 1027.03 1026.83 1026.64 1026.33 1026.19 1025.86 1025.72 1025.61 1025.45 1025.31 1025.18 1024.83 1024.46 1024.00 1023.53 1023.13 1022.66 1022.19 1021.83 1021.92 1021.55 1021.22 1020.98 1020.85 1020.56 1020.48 1020.27 1020.04 1019.83 1019.54 1019.31 1019.14 1018.83 1018.58 1018.31 1017.86
1026.47 1026.22 1026.03 1025.79 1025.40 1024.86 1024.38 1024.15 1024.16 1024.35 1024.14 1023.98 1023.76 1023.51 1023.34 1023.16 1022.89 1022.49 1022.09 1021.53 1020.45 1020.71 1020.36 1019.79 1020.06 1019.56 1019.43 1019.44 1019.24 1019.13 1018.98 1018.74 1018.46 1018.12 1017.84 1017.61 1017.32 1017.11
1025.55 1025.39 1025.09 1024.76 1024.50 1024.22 1023.88 1023.44 1023.17 1022.96 1022.77 1022.83 1022.66 1022.58 1022.49 1022.34 1022.22 1021.89 1021.53 1020.74 1019.98 1019.80 1019.74 1018.74 1019.36 1018.43 1018.55 1018.31 1018.09 1017.95 1017.83 1017.64 1017.38 1017.15 1016.98 1016.72 1016.46 1016.12
1024.80 1024.55 1024.30 1024.03 1023.85 1023.64 1023.32 1023.02 1022.76 1022.49 1022.21 1022.01 1021.91 1021.77 1021.70 1021.56 1021.34 1021.09 1020.54 1019.99 1019.42 1019.49 1019.57 1017.65 1018.34 1017.14 1017.23 1016.91 1016.73 1016.65 1016.54 1016.33 1016.04 1015.79 1015.60 1015.45 1015.14 1014.77
1023.90 1023.63 1023.41 1023.21 1023.08 1022.75 1022.26 1022.04 1021.73 1021.27 1020.99 1020.84 1020.55 1020.41 1020.18 1019.97 1019.86 1019.96 1019.62 1019.19 1018.11 1018.15 1018.41 1017.71 1017.24 1016.72 1016.30 1015.47 1015.33 1015.41 1015.30 1015.10 1014.85 1014.52 1014.13 1013.85 1013.66 1013.29
1022.96 1022.63 1022.40 1022.15 1021.83 1021.41 1021.13 1021.03 1020.62 1020.30 1020.19 1019.90 1019.62 1019.46 1019.53 1019.53 1019.40 1019.25 1019.12 1018.65 1017.98 1017.24 1017.74 1017.25 1016.37 1016.54 1015.33 1014.20 1013.92 1013.82 1014.02 1013.78 1013.56 1013.37 1013.09 1012.76 1012.44 1012.18
1022.08 1021.76 1021.54 1021.30 1020.92 1020.43 1020.10 1019.88 1019.80 1019.63 1019.21 1018.91 1018.97 1018.83 1018.86 1018.94 1018.84 1018.62 1018.34 1018.00 1017.29 1016.56 1016.82 1016.56 1015.95 1015.56 1014.87 1013.28 1013.01 1013.06 1013.17 1012.77 1012.55 1012.18 1011.93 1011.67 1011.40 1011.24
1021.24 1020.94 1020.73 1020.44 1020.01 1019.71 1019.53 1019.48 1019.19 1018.99 1018.76 1018.49 1018.20 1018.01 1017.94 1017.92 1017.85 1017.65 1017.36 1016.99 1016.68 1016.30 1016.29 1016.15 1015.48 1015.13 1014.39 1013.17 1012.18 1012.17 1011.93 1011.68 1011.66 1011.17 1010.85 1010.48 1010.09 1009.49
1020.44 1020.12 1019.66 1019.44 1019.44 1019.43 1019.27 1019.03 1018.75 1018.61 1018.52 1018.28 1017.91 1017.59 1017.38 1017.18 1017.03 1016.86 1016.62 1016.25 1015.86 1015.50 1015.22 1014.98 1014.60 1014.19 1013.74 1012.58 1011.56 1010.93 1010.81 1010.31 1010.27 1010.08 1009.61 1009.22 1008.75 1008.36
1019.62 1019.33 1019.26 1019.17 1019.22 1019.20 1019.01 1018.86 1018.66 1018.45 1018.22 1017.88 1017.44 1016.94 1016.80 1016.53 1016.14 1015.98 1015.71 1015.31 1014.91 1014.21 1013.90 1013.67 1013.43 1013.10 1012.29 1011.56 1010.93 1009.89 1009.80 1009.30 1008.85 1008.63 1008.35 1007.96 1007.60 1007.02
1018.76 1018.79 1019.04 1019.13 1019.02 1018.81 1018.64 1018.52 1018.32 1018.06 1017.76 1017.44 1017.04 1016.53 1016.03 1015.62 1015.18 1014.95 1014.72 1014.35 1013.97 1013.43 1012.82 1012.36 1012.10 1011.81 1011.34 1010.76 1009.87 1009.14 1008.55 1008.19 1007.82 1007.36 1007.27 1006.70 1006.06 1005.54
1018.31 1018.64 1018.71 1018.70 1018.62 1018.43 1018.22 1017.96 1017.75 1017.47 1017.12 1016.81 1016.35 1015.97 1015.51 1015.11 1014.65 1014.26 1013.96 1013.58 1013.08 1012.61 1012.12 1011.60 1011.27 1010.74 1010.15 1009.41 1009.10 1008.09 1007.48 1006.96 1006.47 1006.03 1005.60 1005.13 1004.37 1003.81
1018.23 1018.29 1018.31 1018.23 1018.06 1017.97 1017.81 1017.57 1017.19 1016.87 1016.66 1016.43 1016.12 1015.68 1015.23 1014.70 1014.20 1013.68 1013.27 1012.92 1012.25 1011.78 1011.28 1010.91 1010.55 1010.12 1009.16 1007.93 1007.34 1007.22 1006.65 1006.09 1005.64 1004.97 1004.22 1003.74 1003.16 1002.78
1018.19 1018.17 1018.03 1017.84 1017.65 1017.48 1017.25 1016.99 1016.64 1016.38 1016.11 1015.80 1015.44 1015.06 1014.71 1014.24 1013.67 1013.11 1012.61 1012.16 1011.60 1010.92 1010.39 1009.91 1009.46 1008.91 1008.33 1007.46 1006.59 1006.09 1006.04 1005.67 1005.10 1004.24 1003.55 1002.98 1002.42 1001.84
1017.82 1017.71 1017.55 1017.27 1017.00 1016.81 1016.53 1016.28 1016.01 1015.66 1015.36 1015.03 1014.67 1014.26 1013.93 1013.66 1013.00 1012.43 1011.86 1011.20 1010.54 1009.87 1009.30 1008.73 1008.08 1007.73 1007.28 1006.83 1005.93 1004.98 1004.48 1004.39 1004.17 1003.67 1002.90 1002.32 1001.49 1000.75
1017.47 1017.17 1016.76 1016.47 1016.17 1015.88 1015.55 1015.29 1015.02 1014.72 1014.43 1014.16 1013.77 1013.45 1013.10 1012.74 1012.11 1011.51 1010.94 1010.31 1009.63 1009.07 1008.39 1007.70 1007.16 1006.88 1006.49 1005.88 1004.86 1003.98 1003.24 1002.89 1002.67 1002.41 1002.01 1001.59 1000.94 999.78
1016.92 1016.55 1016.11 1015.68 1015.25 1014.84 1014.48 1014.19 1013.92 1013.60 1013.40 1013.15 1012.83 1012.45 1012.15 1011.66 1011.07 1010.53 1009.93 1009.33 1008.73 1008.11 1007.44 1006.71 1006.11 1005.69 1005.05 1004.54 1003.84 1003.00 1002.35 1001.92 1001.50 1001.02 1000.38 1000.12 999.71 999.03
Wind_Speed
4 5 4 4 4 4 5 5 5 3 3 3 3 2 3 6 9 10 10 14 17 17 18 18 18 17 17 17 18 18 20 20 21 21 21 21 23 24
4 5 5 4 5 5 5 6 6 7 5 4 4 6 9 9 10 10 10 15 17 18 18 17 16 16 17 19 20 20 20 21 23 23 23 22 23 24
6 7 8 7 6 6 6 6 7 8 9 10 9 9 12 11 11 9 9 9 9 16 17 17 17 18 17 18 19 20 22 23 23 24 24 25 25 25
9 9 10 6 9 8 7 9 8 9 8 12 12 10 11 10 11 12 9 8 9 15 18 19 19 19 19 19 19 20 21 22 24 25 25 26 27 26
10 10 10 9 10 8 9 8 8 8 9 9 10 10 10 10 9 10 10 11 9 15 17 19 20 21 20 20 20 21 22 23 24 25 26 27 26 28
10 11 11 11 12 11 9 10 9 9 9 10 10 11 10 10 9 10 10 8 9 8 12 16 20 20 21 22 21 20 20 22 22 23 24 25 26 28
12 12 12 14 17 15 8 11 12 10 10 10 9 9 10 10 10 8 10 11 11 9 10 10 9 9 10 15 18 21 22 22 21 24 26 27 28 29
11 12 12 16 17 21 22 23 16 12 13 11 10 11 11 9 8 10 10 11 13 7 9 9 7 10 10 10 19 23 24 23 23 24 26 28 30 30
11 11 11 10 14 13 17 21 20 23 22 12 10 9 10 10 11 13 14 13 13 10 11 13 10 12 10 12 24 26 26 26 26 26 27 28 29 31
10 11 12 12 13 13 14 14 15 14 15 11 12 11 11 11 12 13 15 16 14 10 10 16 8 13 11 11 24 26 27 28 28 27 27 28 30 32
11 12 12 13 16 19 13 13 14 14 16 23 24 23 24 24 20 9 8 10 13 10 7 12 10 14 12 14 12 23 26 27 27 28 28 28 30 31
11 12 18 16 20 21 13 11 11 13 12 14 13 14 14 12 18 13 9 12 13 13 11 14 11 10 13 10 11 11 10 23 25 26 27 27 28 15
10 9 9 17 19 21 21 11 10 12 13 9 7 9 9 10 10 10 12 12 12 12 9 10 11 9 10 14 12 10 9 11 11 14 25 29 30 26
9 8 9 18 21 21 15 12 16 17 8 9 10 10 10 10 10 10 13 12 11 15 14 14 10 10 12 14 14 9 10 11 11 13 12 19 28 30
8 12 20 17 12 9 11 18 19 9 9 8 9 10 10 9 10 10 12 15 14 14 12 15 12 12 12 14 15 13 14 11 10 12 12 12 13 13
13 10 9 9 11 12 12 10 8 7 8 8 9 9 8 9 9 8 8 9 9 10 11 13 13 13 13 13 13 14 12 13 9 10 11 12 12 12
11 2 2 4 6 7 6 7 7 7 7 7 8 9 9 9 9 8 8 8 9 10 10 8 10 12 12 14 13 12 12 13 13 14 13 13 13 13
1 2 4 5 6 6 7 7 7 9 7 7 8 8 9 9 9 8 8 8 9 10 10 9 9 9 9 11 19 13 12 12 12 13 13 12 13 12
3 5 6 6 6 6 7 7 8 8 8 8 8 8 9 9 11 9 9 9 9 9 9 9 9 9 11 12 9 16 11 9 8 10 11 11 10 10
3 5 7 7 7 7 7 8 8 8 8 8 8 8 8 9 9 9 9 10 10 10 10 9 9 10 10 12 11 10 15 10 10 12 12 11 11 20
6 6 7 7 7 7 7 7 8 8 8 8 8 8 8 8 9 9 10 17 17 10 10 10 10 19 9 9 8 11 10 17 17 13 11 11 12 12
7 7 7 7 8 8 8 7 7 8 8 8 8 8 8 8 9 10 10 11 10 10 11 10 11 9 9 11 13 16 12 11 14 20 24 23 12 14
7 8 8 8 8 8 8 8 8 8 8 8 8 8 8 9 9 10 10 11 11 11 11 12 10 10 11 11 17 13 18 15 11 11 11 20 23 27
Wind_Direction
275 271 267 268 256 247 242 237 231 268 281 281 286 238 266 300 304 306 301 297 303 306 307 310 313 313 310 306 302 301 300 300 300 298 298 296 296 296
272 265 263 257 254 248 242 232 227 240 257 257 253 283 297 294 294 291 288 289 291 293 294 296 296 300 302 303 304 301 298 295 294 294 293 292 290 290
283 275 271 264 259 249 239 236 235 231 248 271 271 281 285 287 291 290 287 285 283 283 285 284 284 288 290 291 294 295 296 295 292 290 291 293 290 287
268 265 266 257 253 247 240 240 238 237 243 261 281 286 279 283 284 290 288 280 279 281 284 286 284 280 281 287 287 288 289 290 293 294 292 290 289 288
266 261 264 254 255 246 238 242 243 244 239 246 267 281 281 282 284 279 279 280 274 277 276 279 280 280 282 283 283 282 283 285 285 287 286 286 283 284
261 257 257 251 252 253 247 249 251 251 248 250 253 268 276 282 279 283 287 278 283 277 275 272 274 273 273 275 279 280 277 277 279 283 285 284 281 281
254 257 257 255 256 253 241 246 244 247 251 252 251 257 263 270 268 281 287 291 288 283 277 272 273 269 268 271 269 271 273 275 275 279 279 278 277 278
256 263 260 265 267 268 267 261 239 231 240 245 250 250 251 259 271 279 286 290 294 280 278 278 269 276 272 269 267 266 268 270 273 276 277 278 276 273
255 261 263 259 262 261 266 273 278 280 268 260 255 247 261 266 275 280 275 263 262 269 280 273 275 271 265 262 265 267 269 270 271 273 273 273 272 272
262 262 260 263 260 261 263 264 261 262 262 264 264 261 262 264 256 260 268 273 274 267 254 271 275 274 276 266 267 269 269 271 272 273 274 273 273 271
267 265 260 262 263 267 264 258 257 260 259 264 263 265 269 272 274 269 272 279 281 276 257 265 274 276 275 271 268 264 264 264 267 270 273 275 275 275
270 266 266 266 260 266 264 263 265 268 254 257 264 271 274 278 275 276 280 271 275 278 264 257 271 268 277 259 256 251 247 254 258 262 264 270 273 272
263 266 263 265 274 277 278 274 276 281 271 277 287 279 271 264 262 258 256 257 264 262 259 278 282 280 250 275 271 267 261 259 257 260 268 271 272 268
263 267 262 266 273 278 290 294 300 300 295 289 284 280 278 274 269 265 261 257 261 269 274 268 268 266 269 274 274 258 254 255 256 261 263 264 268 268
277 268 270 285 305 307 302 299 300 296 284 276 273 274 271 271 271 267 268 267 266 264 259 258 256 259 257 264 270 270 271 259 250 254 256 256 261 262
273 274 274 281 289 292 296 292 283 276 273 270 272 278 284 274 270 267 266 268 269 272 264 257 256 258 266 264 266 268 261 261 259 253 252 257 257 252
265 211 241 262 283 286 284 281 277 274 273 274 273 278 280 279 275 276 269 272 269 276 277 271 263 259 263 271 273 270 266 261 259 262 259 257 255 252
323 261 280 280 280 282 281 282 280 279 277 279 278 280 283 284 282 279 269 264 274 279 279 277 278 280 275 258 247 263 261 261 261 260 255 251 258 250
309 301 288 282 280 277 273 269 272 271 276 272 274 276 279 278 285 280 278 277 270 270 272 273 271 270 276 277 279 266 270 281 296 295 259 251 259 258
287 285 284 278 270 267 266 263 266 267 264 264 265 266 266 270 280 274 271 272 272 273 271 267 259 257 263 274 280 278 263 268 269 275 276 269 267 272
290 277 267 267 265 260 256 256 254 258 261 256 255 256 263 265 267 267 268 275 276 278 277 272 266 274 273 277 261 269 266 257 258 266 276 275 274 275
278 274 274 269 265 260 259 254 256 259 260 259 259 258 259 258 261 265 267 271 270 268 268 273 277 273 264 261 268 275 278 275 270 264 264 264 266 268
269 272 276 273 271 268 262 258 255 258 255 255 256 258 257 259 259 262 265 267 267 269 270 274 272 267 258 258 264 271 275 276 278 277 268 265 267 269